When you browse on this site, cookies collect data to enhance your experience and personalize the content and advertising you see.
Visit our Privacy Policy to learn more. By continuing to use the site, you agree to this use of cookies and data.
  • In Portugal
  • List of Countries
  • For 7 days
  • Water Temperature
  • Satellite Maps
  • Weather Map
  • Weather Widgets
  • user-avatar
    Login

    Hourly Weather Staryy Sinec

    Today, 18 April, Thursday

    Time Temperature Precipitation Wind Pressure Humidity
    00:00 +4°C° 0 mm 1 mps 753 mmHg 64%
    01:00 +4°C° 0 mm 1 mps 753 mmHg 64%
    02:00 +2°C° 0 mm 0 mps 753 mmHg 64%
    03:00 +2°C° 0 mm 0 mps 752 mmHg 64%
    04:00 +2°C° 0 mm 0 mps 752 mmHg 64%
    05:00 +2°C° 0 mm 0 mps 752 mmHg 63%
    06:00 +5°C° 0 mm 1 mps 752 mmHg 60%
    07:00 +6°C° 0 mm 1 mps 751 mmHg 56%
    08:00 +7°C° 0 mm 1 mps 752 mmHg 53%
    09:00 +7°C° 0 mm 2 mps 751 mmHg 50%
    10:00 +8°C° 0 mm 2 mps 751 mmHg 47%
    11:00 +9°C° 0 mm 2 mps 750 mmHg 44%
    12:00 +10°C° 0 mm 2 mps 750 mmHg 44%
    13:00 +10°C° 0 mm 2 mps 750 mmHg 45%
    14:00 +12°C° 0 mm 2 mps 749 mmHg 45%
    15:00 +11°C° 0.2 mm 1 mps 749 mmHg 47%
    16:00 +11°C° 0.2 mm 1 mps 749 mmHg 50%
    17:00 +11°C° 0.2 mm 1 mps 748 mmHg 52%
    18:00 +10°C° 0.1 mm 1 mps 748 mmHg 56%
    19:00 +9°C° 0.1 mm 1 mps 749 mmHg 60%
    20:00 +8°C° 0.1 mm 1 mps 749 mmHg 65%
    21:00 +8°C° 0 mm 1 mps 749 mmHg 66%
    22:00 +6°C° 0 mm 2 mps 749 mmHg 67%
    23:00 +5°C° 0 mm 2 mps 749 mmHg 68%

    Tomorrow, 19 April, Friday

    Time Temperature Precipitation Wind Pressure Humidity
    00:00 +5°C° 0 mm 2 mps 750 mmHg 68%
    01:00 +5°C° 0 mm 2 mps 750 mmHg 69%
    02:00 +4°C° 0 mm 2 mps 750 mmHg 69%
    03:00 +4°C° 0 mm 2 mps 751 mmHg 70%
    04:00 +4°C° 0 mm 2 mps 751 mmHg 70%
    05:00 +4°C° 0 mm 2 mps 751 mmHg 71%
    06:00 +5°C° 0 mm 2 mps 751 mmHg 65%
    07:00 +6°C° 0 mm 2 mps 752 mmHg 59%
    08:00 +7°C° 0 mm 2 mps 752 mmHg 53%
    09:00 +8°C° 0 mm 3 mps 752 mmHg 48%
    10:00 +9°C° 0 mm 3 mps 752 mmHg 42%
    11:00 +10°C° 0 mm 3 mps 752 mmHg 37%
    12:00 +10°C° 0 mm 3 mps 752 mmHg 37%
    13:00 +12°C° 0 mm 2 mps 752 mmHg 36%
    14:00 +12°C° 0 mm 2 mps 752 mmHg 36%
    15:00 +12°C° 0 mm 2 mps 752 mmHg 38%
    16:00 +10°C° 0 mm 2 mps 752 mmHg 40%
    17:00 +10°C° 0 mm 2 mps 752 mmHg 42%
    18:00 +10°C° 0 mm 1 mps 752 mmHg 45%
    19:00 +9°C° 0 mm 1 mps 752 mmHg 49%
    20:00 +8°C° 0 mm 1 mps 752 mmHg 52%
    21:00 +7°C° 0 mm 0 mps 752 mmHg 53%
    22:00 +6°C° 0 mm 0 mps 752 mmHg 55%
    23:00 +6°C° 0 mm 0 mps 752 mmHg 56%

    Day after tomorrow, 20 April, Saturday

    Time Temperature Precipitation Wind Pressure Humidity
    00:00 +6°C° 0 mm 0 mps 752 mmHg 57%
    01:00 +7°C° 0 mm 1 mps 751 mmHg 57%
    02:00 +7°C° 0 mm 1 mps 751 mmHg 58%
    03:00 +7°C° 0 mm 1 mps 751 mmHg 59%
    04:00 +7°C° 0 mm 1 mps 751 mmHg 60%
    05:00 +7°C° 0 mm 1 mps 751 mmHg 61%
    06:00 +7°C° 0 mm 2 mps 751 mmHg 58%
    07:00 +8°C° 0 mm 2 mps 750 mmHg 54%
    08:00 +9°C° 0 mm 2 mps 750 mmHg 50%
    09:00 +10°C° 0 mm 2 mps 750 mmHg 47%
    10:00 +10°C° 0 mm 2 mps 750 mmHg 44%
    11:00 +12°C° 0 mm 2 mps 749 mmHg 41%
    12:00 +12°C° 0 mm 2 mps 749 mmHg 41%
    13:00 +12°C° 0 mm 2 mps 749 mmHg 42%
    14:00 +13°C° 0 mm 2 mps 749 mmHg 42%
    15:00 +12°C° 0 mm 2 mps 749 mmHg 43%
    16:00 +12°C° 0 mm 2 mps 749 mmHg 44%
    17:00 +12°C° 0 mm 2 mps 748 mmHg 45%
    18:00 +10°C° 0 mm 2 mps 748 mmHg 50%
    19:00 +9°C° 0 mm 2 mps 749 mmHg 55%
    20:00 +8°C° 0 mm 3 mps 749 mmHg 60%
    21:00 +7°C° 0 mm 3 mps 749 mmHg 63%
    22:00 +5°C° 0 mm 3 mps 749 mmHg 66%
    23:00 +5°C° 0 mm 3 mps 749 mmHg 69%

    21 April, Sunday

    Time Temperature Precipitation Wind Pressure Humidity
    00:00 +5°C° 0 mm 3 mps 749 mmHg 70%
    01:00 +5°C° 0 mm 2 mps 749 mmHg 70%
    02:00 +5°C° 0 mm 2 mps 749 mmHg 71%
    03:00 +5°C° 0 mm 2 mps 750 mmHg 71%
    04:00 +4°C° 0 mm 2 mps 750 mmHg 70%
    05:00 +4°C° 0 mm 2 mps 750 mmHg 70%
    06:00 +6°C° 0 mm 2 mps 750 mmHg 64%
    07:00 +8°C° 0 mm 3 mps 751 mmHg 58%
    08:00 +10°C° 0 mm 3 mps 751 mmHg 52%
    09:00 +10°C° 0 mm 3 mps 751 mmHg 49%
    10:00 +11°C° 0 mm 3 mps 751 mmHg 45%
    11:00 +12°C° 0 mm 3 mps 751 mmHg 42%
    12:00 +12°C° 0 mm 3 mps 751 mmHg 41%
    13:00 +12°C° 0 mm 3 mps 751 mmHg 40%
    14:00 +13°C° 0 mm 3 mps 751 mmHg 38%
    15:00 +12°C° 0 mm 3 mps 751 mmHg 39%
    16:00 +13°C° 0 mm 2 mps 751 mmHg 40%
    17:00 +13°C° 0 mm 2 mps 751 mmHg 40%
    18:00 +10°C° 0 mm 2 mps 752 mmHg 44%
    19:00 +9°C° 0 mm 2 mps 752 mmHg 47%
    20:00 +9°C° 0 mm 1 mps 752 mmHg 51%
    21:00 +8°C° 0 mm 1 mps 752 mmHg 52%
    22:00 +8°C° 0 mm 1 mps 753 mmHg 53%
    23:00 +8°C° 0 mm 1 mps 753 mmHg 54%

    22 April, Monday

    Time Temperature Precipitation Wind Pressure Humidity
    00:00 +8°C° 0 mm 1 mps 753 mmHg 54%
    01:00 +7°C° 0 mm 0 mps 753 mmHg 54%
    02:00 +7°C° 0 mm 0 mps 753 mmHg 54%
    03:00 +7°C° 0 mm 0 mps 753 mmHg 55%
    04:00 +7°C° 0 mm 0 mps 754 mmHg 56%
    05:00 +8°C° 0 mm 1 mps 754 mmHg 56%
    06:00 +9°C° 0 mm 1 mps 754 mmHg 53%
    07:00 +10°C° 0 mm 1 mps 754 mmHg 49%
    08:00 +12°C° 0 mm 1 mps 754 mmHg 45%
    09:00 +12°C° 0 mm 1 mps 754 mmHg 42%
    10:00 +13°C° 0 mm 1 mps 754 mmHg 39%
    11:00 +14°C° 0 mm 1 mps 754 mmHg 35%
    12:00 +14°C° 0 mm 1 mps 754 mmHg 35%
    13:00 +14°C° 0 mm 1 mps 754 mmHg 35%
    14:00 +14°C° 0 mm 1 mps 754 mmHg 36%
    15:00 +14°C° 0 mm 1 mps 754 mmHg 37%
    16:00 +14°C° 0 mm 1 mps 754 mmHg 39%
    17:00 +13°C° 0 mm 1 mps 754 mmHg 40%
    18:00 +13°C° 0 mm 1 mps 754 mmHg 43%
    19:00 +12°C° 0 mm 1 mps 754 mmHg 45%
    20:00 +11°C° 0 mm 1 mps 754 mmHg 48%
    21:00 +11°C° 0 mm 1 mps 755 mmHg 49%
    22:00 +10°C° 0 mm 1 mps 755 mmHg 51%
    23:00 +10°C° 0 mm 1 mps 755 mmHg 52%

    23 April, Tuesday

    Time Temperature Precipitation Wind Pressure Humidity
    00:00 +9°C° 0 mm 1 mps 755 mmHg 54%
    01:00 +9°C° 0 mm 1 mps 755 mmHg 55%
    02:00 +8°C° 0 mm 1 mps 755 mmHg 57%
    03:00 +8°C° 0 mm 1 mps 755 mmHg 58%
    04:00 +8°C° 0 mm 1 mps 755 mmHg 59%
    05:00 +8°C° 0 mm 1 mps 756 mmHg 61%
    06:00 +9°C° 0 mm 1 mps 756 mmHg 59%
    07:00 +10°C° 0 mm 1 mps 756 mmHg 58%
    08:00 +11°C° 0 mm 1 mps 756 mmHg 56%
    09:00 +13°C° 0 mm 1 mps 756 mmHg 52%
    10:00 +14°C° 0 mm 1 mps 756 mmHg 48%
    11:00 +16°C° 0 mm 1 mps 756 mmHg 44%
    12:00 +16°C° 0 mm 1 mps 755 mmHg 44%
    13:00 +16°C° 0 mm 1 mps 755 mmHg 43%
    14:00 +16°C° 0 mm 1 mps 755 mmHg 43%
    15:00 +16°C° 0 mm 1 mps 755 mmHg 44%
    16:00 +16°C° 0 mm 1 mps 755 mmHg 45%
    17:00 +16°C° 0 mm 1 mps 755 mmHg 46%
    18:00 +14°C° 0 mm 1 mps 755 mmHg 49%
    19:00 +13°C° 0 mm 1 mps 755 mmHg 52%
    20:00 +12°C° 0 mm 1 mps 755 mmHg 55%
    21:00 +11°C° 0 mm 1 mps 755 mmHg 57%
    22:00 +9°C° 0 mm 2 mps 755 mmHg 60%
    23:00 +8°C° 0 mm 2 mps 755 mmHg 62%
    Show more